contact:dominique.lefevre@mio.osupytheas.fr, maurice.libes@osupytheas.fr, didier.mallarino@osupytheas.fr
Project:EMSO http://www.emso-fr.org/EMSO-France
Depth: 2436.0 m
Title:EMSO Ligure Ouest : Data MII capteur AQUADOPP
Date,Latitude,Longitude,X_East,Y_North,Z_Up,Amplitude_X,Amplitude_Y,Amplitude_Z,Batterie,SoundSpeed,Heading,Pitch,Roll,Pressure,TIS,Speed,Direction
, degrees North, degrees East, m.s-1, m.s-1,m.s-1, 1, 1, 1, Volt, m.s-1, degree, degree, degree, dbar, degree_C, m.s-1, degree
2023-05-29T00:04:03,42.805,6.029,-0.04,-0.003,-0.033,103.0,103.0,101.0,13.4,1505.2,336.3,-0.8,1.8,2471.421,13.28,0.04,265.7
2023-05-29T00:07:03,42.805,6.029,-0.012,-0.009,-0.037,104.0,102.0,102.0,13.4,1505.2,333.9,-0.8,1.8,2471.343,13.28,0.015,233.1
2023-05-29T00:10:03,42.805,6.029,-0.031,-0.003,-0.034,105.0,102.0,101.0,13.3,1505.2,336.0,-0.8,1.8,2471.382,13.29,0.031,264.5
2023-05-29T00:13:03,42.805,6.029,-0.037,0.012,-0.021,104.0,105.0,101.0,13.4,1505.2,322.2,-0.8,1.8,2471.437,13.29,0.038,288.0
2023-05-29T00:16:03,42.805,6.029,-0.028,0.001,-0.013,103.0,103.0,103.0,13.4,1505.2,341.5,-0.8,1.8,2471.429,13.29,0.028,272.0
2023-05-29T00:19:03,42.805,6.029,-0.019,-0.011,-0.003,102.0,104.0,102.0,13.3,1505.2,334.9,-0.8,1.8,2471.386,13.29,0.021,239.9
2023-05-29T00:22:03,42.805,6.029,-0.04,-0.013,-0.031,104.0,104.0,103.0,13.4,1505.2,321.8,-0.8,1.8,2471.396,13.29,0.042,252.0
2023-05-29T00:25:03,42.805,6.029,-0.036,-0.001,-0.023,105.0,103.0,102.0,13.4,1505.2,334.4,-0.7,1.8,2471.394,13.29,0.036,268.4
2023-05-29T00:28:03,42.805,6.029,-0.038,0.006,-0.039,104.0,104.0,102.0,13.4,1505.2,323.1,-0.8,1.8,2471.439,13.29,0.038,279.0
2023-05-29T00:31:03,42.805,6.029,-0.023,-0.013,-0.011,105.0,103.0,102.0,13.4,1505.2,323.5,-0.8,1.8,2471.433,13.29,0.026,240.5
2023-05-29T00:34:03,42.805,6.029,-0.024,0.013,0.001,104.0,103.0,101.0,13.3,1505.2,340.4,-0.7,1.8,2471.379,13.29,0.027,298.4
2023-05-29T00:37:03,42.805,6.029,-0.015,-0.006,-0.03,103.0,103.0,102.0,13.4,1505.2,325.7,-0.8,1.8,2471.383,13.29,0.016,248.2
2023-05-29T00:40:03,42.805,6.029,-0.035,0.022,-0.04,104.0,104.0,101.0,13.4,1505.2,330.3,-0.7,1.8,2471.381,13.29,0.041,302.2
2023-05-29T00:43:03,42.805,6.029,-0.037,0.027,-0.017,103.0,103.0,102.0,13.4,1505.2,347.2,-0.7,1.8,2471.395,13.29,0.045,306.1
2023-05-29T00:46:03,42.805,6.029,-0.017,0.016,-0.006,103.0,103.0,102.0,13.4,1505.2,338.6,-0.8,1.8,2471.386,13.29,0.023,313.3
2023-05-29T00:49:03,42.805,6.029,-0.035,0.009,-0.022,104.0,103.0,102.0,13.4,1505.2,344.9,-0.8,1.8,2471.422,13.29,0.036,284.4
2023-05-29T00:52:03,42.805,6.029,-0.02,0.0,0.002,105.0,103.0,103.0,13.4,1505.2,338.3,-0.8,1.8,2471.399,13.29,0.02,270.0
2023-05-29T00:55:03,42.805,6.029,-0.015,0.006,0.001,104.0,104.0,103.0,13.4,1505.2,334.4,-0.8,1.8,2471.43,13.29,0.016,291.8
2023-05-29T00:58:03,42.805,6.029,-0.01,-0.009,-0.009,105.0,103.0,101.0,13.3,1505.2,339.3,-0.8,1.8,2471.401,13.29,0.013,228.0
2023-05-29T01:04:03,42.805,6.029,-0.033,-0.001,-0.036,105.0,105.0,104.0,13.3,1505.2,348.4,-0.8,1.8,2471.408,13.28,0.033,268.3
2023-05-29T01:07:03,42.805,6.029,-0.038,0.001,-0.002,104.0,102.0,103.0,13.4,1505.2,336.0,-0.7,1.8,2471.406,13.29,0.038,271.5
2023-05-29T01:10:03,42.805,6.029,-0.03,0.007,-0.01,103.0,102.0,102.0,13.4,1505.2,347.5,-0.8,1.8,2471.415,13.29,0.03,283.1
2023-05-29T01:13:03,42.805,6.029,-0.012,0.001,-0.039,103.0,103.0,102.0,13.4,1505.2,341.5,-0.7,1.8,2471.422,13.29,0.012,274.8
2023-05-29T01:16:03,42.805,6.029,-0.053,0.004,-0.038,104.0,104.0,103.0,13.3,1505.2,345.9,-0.8,1.8,2471.433,13.29,0.053,274.3
2023-05-29T01:19:03,42.805,6.029,-0.016,0.0,-0.029,105.0,103.0,102.0,13.4,1505.2,339.5,-0.8,1.8,2471.393,13.29,0.016,270.0
2023-05-29T01:22:03,42.805,6.029,-0.033,0.011,-0.016,103.0,103.0,102.0,13.4,1505.2,321.3,-0.8,1.8,2471.446,13.29,0.034,288.4
2023-05-29T01:25:03,42.805,6.029,-0.022,0.004,-0.021,102.0,103.0,103.0,13.4,1505.2,341.2,-0.7,1.8,2471.42,13.29,0.022,280.3
2023-05-29T01:28:03,42.805,6.029,-0.017,-0.007,-0.028,102.0,102.0,103.0,13.3,1505.2,324.9,-0.8,1.8,2471.38,13.29,0.018,247.6
2023-05-29T01:31:03,42.805,6.029,-0.036,-0.009,-0.024,103.0,104.0,102.0,13.4,1505.2,317.6,-0.7,1.8,2471.411,13.29,0.037,256.0
2023-05-29T01:34:03,42.805,6.029,-0.021,0.008,-0.014,103.0,101.0,102.0,13.4,1505.2,346.5,-0.8,1.8,2471.409,13.29,0.022,290.9
2023-05-29T01:37:03,42.805,6.029,-0.015,-0.007,-0.027,102.0,103.0,103.0,13.4,1505.2,336.1,-0.7,1.8,2471.384,13.29,0.016,245.0
2023-05-29T01:40:03,42.805,6.029,-0.043,0.012,-0.014,102.0,103.0,102.0,13.4,1505.2,339.5,-0.8,1.8,2471.37,13.29,0.044,285.6
2023-05-29T01:43:03,42.805,6.029,-0.029,-0.001,-0.016,104.0,103.0,101.0,13.4,1505.2,338.5,-0.8,1.9,2471.401,13.29,0.029,268.0
2023-05-29T01:46:03,42.805,6.029,-0.018,0.013,-0.014,103.0,102.0,102.0,13.4,1505.2,348.6,-0.8,1.8,2471.411,13.29,0.022,305.8
2023-05-29T01:49:03,42.805,6.029,-0.002,-0.001,-0.019,102.0,103.0,102.0,13.4,1505.2,335.8,-0.7,1.8,2471.382,13.29,0.002,243.4
2023-05-29T01:52:03,42.805,6.029,-0.038,0.006,-0.011,102.0,103.0,102.0,13.4,1505.2,323.3,-0.8,1.8,2471.436,13.29,0.038,279.0
2023-05-29T01:55:03,42.805,6.029,-0.009,-0.011,-0.027,104.0,102.0,102.0,13.4,1505.2,340.4,-0.8,1.8,2471.405,13.29,0.014,219.3
2023-05-29T01:58:03,42.805,6.029,-0.042,0.007,-0.052,102.0,104.0,102.0,13.4,1505.2,332.9,-0.8,1.8,2471.4,13.29,0.042,279.5
2023-05-29T02:04:03,42.805,6.029,-0.022,0.007,-0.017,103.0,101.0,102.0,13.3,1505.2,319.7,-0.8,1.8,2471.474,13.28,0.023,287.6
2023-05-29T02:07:03,42.805,6.029,-0.027,0.012,-0.036,104.0,103.0,102.0,13.3,1505.2,328.0,-0.8,1.8,2471.405,13.28,0.029,294.0
2023-05-29T02:10:03,42.805,6.029,-0.005,0.013,-0.015,105.0,102.0,101.0,13.3,1505.2,328.7,-0.8,1.8,2471.402,13.29,0.013,339.0
2023-05-29T02:13:03,42.805,6.029,-0.01,0.0,-0.023,103.0,103.0,103.0,13.3,1505.2,333.4,-0.8,1.8,2471.444,13.29,0.01,270.0
2023-05-29T02:16:03,42.805,6.029,-0.016,0.005,-0.004,105.0,103.0,102.0,13.4,1505.2,328.7,-0.8,1.8,2471.468,13.29,0.016,287.4
2023-05-29T02:19:03,42.805,6.029,-0.003,-0.015,-0.026,104.0,104.0,102.0,13.4,1505.2,335.9,-0.7,1.8,2471.471,13.29,0.015,191.3
2023-05-29T02:22:03,42.805,6.029,-0.016,0.011,0.003,103.0,102.0,103.0,13.4,1505.2,341.2,-0.8,1.8,2471.439,13.29,0.019,304.5
2023-05-29T02:25:03,42.805,6.029,-0.034,0.015,-0.048,103.0,104.0,101.0,13.3,1505.2,331.6,-0.8,1.8,2471.464,13.29,0.037,293.8
2023-05-29T02:28:03,42.805,6.029,-0.022,0.004,-0.025,103.0,103.0,103.0,13.3,1505.2,326.0,-0.8,1.8,2471.434,13.29,0.022,280.3
2023-05-29T02:31:03,42.805,6.029,-0.016,-0.004,-0.043,103.0,104.0,102.0,13.3,1505.2,342.8,-0.8,1.8,2471.439,13.29,0.016,256.0
2023-05-29T02:34:03,42.805,6.029,-0.023,0.012,-0.018,102.0,103.0,101.0,13.4,1505.2,339.3,-0.7,1.8,2471.427,13.29,0.025,297.6
2023-05-29T02:37:03,42.805,6.029,-0.033,-0.016,-0.03,102.0,104.0,102.0,13.3,1505.2,333.9,-0.7,1.8,2471.427,13.29,0.036,244.1
2023-05-29T02:40:03,42.805,6.029,-0.023,0.01,-0.029,103.0,103.0,102.0,13.4,1505.2,333.4,-0.8,1.8,2471.414,13.29,0.025,293.5
2023-05-29T02:43:03,42.805,6.029,-0.006,0.001,-0.007,104.0,104.0,100.0,13.4,1505.2,338.8,-0.7,1.8,2471.43,13.29,0.006,279.5
2023-05-29T02:46:03,42.805,6.029,-0.042,-0.007,-0.05,102.0,104.0,102.0,13.4,1505.2,338.2,-0.8,1.8,2471.41,13.29,0.042,260.5
2023-05-29T02:49:03,42.805,6.029,-0.015,-0.001,-0.046,102.0,101.0,102.0,13.4,1505.2,330.6,-0.8,1.8,2471.417,13.29,0.015,266.2
2023-05-29T02:52:03,42.805,6.029,-0.013,0.003,-0.034,104.0,103.0,101.0,13.4,1505.2,334.3,-0.8,1.8,2471.42,13.29,0.013,283.0
2023-05-29T02:55:03,42.805,6.029,-0.016,-0.002,-0.043,102.0,104.0,103.0,13.4,1505.2,338.0,-0.8,1.9,2471.405,13.29,0.016,262.9
2023-05-29T02:58:03,42.805,6.029,-0.029,-0.001,-0.041,103.0,103.0,101.0,13.4,1505.2,338.8,-0.8,1.8,2471.429,13.29,0.029,268.0
2023-05-29T03:04:03,42.805,6.029,-0.02,0.019,-0.033,104.0,102.0,103.0,13.4,1505.2,336.8,-0.8,1.8,2471.45,13.28,0.027,313.5
2023-05-29T03:07:03,42.805,6.029,-0.019,0.029,-0.001,103.0,104.0,102.0,13.3,1505.2,327.6,-0.8,1.8,2471.472,13.29,0.034,326.8
2023-05-29T03:10:03,42.805,6.029,-0.037,0.0,-0.025,102.0,104.0,103.0,13.4,1505.2,330.3,-0.8,1.8,2471.424,13.29,0.037,270.0
2023-05-29T03:13:03,42.805,6.029,-0.009,0.001,-0.009,104.0,103.0,101.0,13.4,1505.2,340.0,-0.8,1.8,2471.445,13.29,0.009,276.3
2023-05-29T03:16:03,42.805,6.029,-0.008,-0.005,-0.026,103.0,103.0,103.0,13.4,1505.2,349.7,-0.8,1.8,2471.46,13.29,0.009,238.0
2023-05-29T03:19:03,42.805,6.029,-0.022,0.003,-0.025,102.0,103.0,102.0,13.3,1505.2,349.1,-0.7,1.8,2471.442,13.29,0.022,277.8
2023-05-29T03:22:03,42.805,6.029,-0.014,0.003,-0.026,102.0,104.0,102.0,13.4,1505.2,328.2,-0.8,1.8,2471.454,13.29,0.014,282.1
2023-05-29T03:25:03,42.805,6.029,-0.025,-0.018,-0.044,103.0,104.0,101.0,13.4,1505.2,321.0,-0.8,1.8,2471.468,13.29,0.03,234.2
2023-05-29T03:28:03,42.805,6.029,-0.007,0.005,-0.022,103.0,103.0,102.0,13.3,1505.2,337.1,-0.7,1.9,2471.425,13.29,0.008,305.5
2023-05-29T03:31:03,42.805,6.029,-0.024,0.01,-0.033,104.0,102.0,102.0,13.4,1505.2,328.8,-0.7,1.9,2471.42,13.29,0.026,292.6
2023-05-29T03:34:03,42.805,6.029,-0.007,0.011,-0.02,103.0,103.0,102.0,13.4,1505.2,328.6,-0.8,1.8,2471.426,13.29,0.013,327.5
2023-05-29T03:37:03,42.805,6.029,-0.031,-0.005,-0.054,104.0,104.0,103.0,13.4,1505.2,340.7,-0.8,1.8,2471.446,13.29,0.031,260.8
2023-05-29T03:40:03,42.805,6.029,-0.041,0.022,-0.015,103.0,103.0,102.0,13.4,1505.2,347.0,-0.7,1.8,2471.402,13.29,0.046,298.2
2023-05-29T03:43:03,42.805,6.029,-0.007,0.016,-0.005,103.0,103.0,102.0,13.4,1505.2,344.2,-0.7,1.8,2471.411,13.29,0.017,336.4
2023-05-29T03:46:03,42.805,6.029,-0.027,0.013,-0.026,104.0,103.0,102.0,13.3,1505.2,339.6,-0.7,1.8,2471.384,13.29,0.029,295.7
2023-05-29T03:49:03,42.805,6.029,-0.006,0.005,0.006,102.0,102.0,102.0,13.4,1505.2,333.8,-0.8,1.8,2471.448,13.29,0.007,309.8
2023-05-29T03:52:03,42.805,6.029,-0.029,0.015,-0.018,103.0,102.0,102.0,13.4,1505.2,320.7,-0.8,1.8,2471.405,13.29,0.032,297.4
2023-05-29T03:55:03,42.805,6.029,-0.019,-0.005,-0.042,103.0,102.0,102.0,13.3,1505.2,333.9,-0.8,1.8,2471.414,13.29,0.019,255.3
2023-05-29T03:58:03,42.805,6.029,-0.027,0.0,-0.03,104.0,103.0,101.0,13.3,1505.2,341.2,-0.8,1.8,2471.395,13.29,0.026,270.0
2023-05-29T04:04:03,42.805,6.029,-0.038,0.018,-0.044,104.0,103.0,102.0,13.4,1505.2,329.1,-0.8,1.8,2471.462,13.28,0.042,295.3
2023-05-29T04:07:03,42.805,6.029,-0.02,0.015,-0.014,104.0,103.0,104.0,13.3,1505.2,348.6,-0.8,1.8,2471.439,13.29,0.025,306.9
2023-05-29T04:10:03,42.805,6.029,-0.015,-0.007,-0.019,105.0,104.0,102.0,13.4,1505.2,332.6,-0.8,1.8,2471.459,13.29,0.016,245.0
2023-05-29T04:13:03,42.805,6.029,-0.016,-0.002,-0.024,104.0,104.0,103.0,13.4,1505.2,330.7,-0.8,1.8,2471.434,13.29,0.016,262.9
2023-05-29T04:16:03,42.805,6.029,-0.013,0.003,-0.02,103.0,104.0,102.0,13.4,1505.2,329.3,-0.8,1.8,2471.448,13.29,0.013,283.0
2023-05-29T04:19:03,42.805,6.029,-0.032,-0.001,-0.01,104.0,103.0,102.0,13.3,1505.2,330.8,-0.7,1.8,2471.405,13.29,0.032,268.2
2023-05-29T04:22:03,42.805,6.029,-0.032,0.005,-0.035,103.0,104.0,102.0,13.4,1505.2,342.5,-0.8,1.8,2471.447,13.29,0.032,278.9
2023-05-29T04:25:03,42.805,6.029,-0.02,0.008,-0.016,104.0,103.0,102.0,13.4,1505.2,318.9,-0.8,1.8,2471.428,13.29,0.021,291.8
2023-05-29T04:28:03,42.805,6.029,-0.006,-0.001,-0.017,103.0,104.0,102.0,13.4,1505.2,322.5,-0.8,1.8,2471.409,13.29,0.006,260.5
2023-05-29T04:31:03,42.805,6.029,-0.022,0.0,-0.021,103.0,103.0,103.0,13.3,1505.2,325.3,-0.7,1.8,2471.393,13.29,0.022,270.0
2023-05-29T04:34:03,42.805,6.029,-0.021,0.015,-0.014,103.0,102.0,103.0,13.4,1505.2,333.8,-0.7,1.8,2471.38,13.29,0.025,305.5
2023-05-29T04:37:03,42.805,6.029,-0.01,0.01,-0.021,103.0,103.0,103.0,13.4,1505.2,340.4,-0.8,1.8,2471.407,13.29,0.014,315.0
2023-05-29T04:40:03,42.805,6.029,-0.036,0.008,-0.034,103.0,103.0,102.0,13.4,1505.2,325.4,-0.8,1.8,2471.424,13.29,0.036,282.5
2023-05-29T04:43:03,42.805,6.029,-0.016,0.012,-0.048,103.0,103.0,102.0,13.4,1505.2,340.2,-0.8,1.8,2471.434,13.29,0.02,306.9
2023-05-29T04:46:03,42.805,6.029,-0.001,0.01,-0.028,103.0,103.0,102.0,13.3,1505.2,332.1,-0.8,1.8,2471.422,13.29,0.01,354.3
2023-05-29T04:49:03,42.805,6.029,-0.022,0.011,0.0,104.0,102.0,103.0,13.3,1505.2,332.1,-0.7,1.8,2471.444,13.29,0.024,296.6
2023-05-29T04:52:03,42.805,6.029,-0.023,0.006,0.004,104.0,104.0,102.0,13.3,1505.2,327.8,-0.8,1.8,2471.421,13.29,0.023,284.6
2023-05-29T04:55:03,42.805,6.029,-0.034,-0.002,-0.018,104.0,104.0,103.0,13.4,1505.2,324.6,-0.7,1.8,2471.405,13.29,0.034,266.6
2023-05-29T04:58:03,42.805,6.029,-0.026,0.015,-0.026,103.0,103.0,103.0,13.4,1505.2,335.4,-0.7,1.8,2471.398,13.29,0.03,300.0
2023-05-29T05:04:03,42.805,6.029,-0.025,-0.005,-0.021,103.0,104.0,102.0,13.3,1505.2,338.2,-0.8,1.8,2471.45,13.29,0.025,258.7
2023-05-29T05:07:03,42.805,6.029,-0.011,-0.001,-0.008,105.0,102.0,103.0,13.4,1505.2,325.4,-0.8,1.8,2471.453,13.29,0.011,264.8
2023-05-29T05:10:03,42.805,6.029,-0.018,0.01,-0.003,104.0,103.0,101.0,13.4,1505.2,329.5,-0.8,1.8,2471.437,13.29,0.02,299.1
2023-05-29T05:13:03,42.805,6.029,0.003,-0.006,-0.009,103.0,104.0,103.0,13.3,1505.2,329.5,-0.8,1.8,2471.469,13.29,0.006,153.4
2023-05-29T05:16:03,42.805,6.029,-0.008,0.003,-0.033,105.0,103.0,103.0,13.3,1505.2,347.8,-0.8,1.8,2471.438,13.29,0.008,290.6
2023-05-29T05:19:03,42.805,6.029,-0.013,0.022,-0.024,104.0,103.0,103.0,13.4,1505.2,336.8,-0.7,1.8,2471.433,13.29,0.025,329.4
2023-05-29T05:22:03,42.805,6.029,-0.008,0.012,0.001,103.0,103.0,103.0,13.4,1505.2,321.1,-0.8,1.8,2471.396,13.29,0.014,326.3
2023-05-29T05:25:03,42.805,6.029,-0.015,0.004,-0.015,104.0,104.0,102.0,13.3,1505.2,330.3,-0.8,1.8,2471.397,13.29,0.015,284.9
2023-05-29T05:28:03,42.805,6.029,-0.028,-0.007,-0.025,104.0,103.0,105.0,13.4,1505.2,332.4,-0.8,1.8,2471.387,13.29,0.028,256.0
2023-05-29T05:31:03,42.805,6.029,0.002,0.003,-0.002,104.0,103.0,102.0,13.4,1505.2,335.8,-0.8,1.8,2471.368,13.29,0.003,33.7
2023-05-29T05:34:03,42.805,6.029,-0.008,0.002,-0.001,104.0,104.0,101.0,13.3,1505.2,336.0,-0.8,1.9,2471.387,13.29,0.008,284.0
2023-05-29T05:37:03,42.805,6.029,-0.03,0.003,-0.022,104.0,103.0,103.0,13.3,1505.2,322.3,-0.8,1.8,2471.39,13.29,0.03,275.7
2023-05-29T05:40:03,42.805,6.029,-0.015,-0.012,-0.054,104.0,103.0,102.0,13.4,1505.2,336.6,-0.8,1.8,2471.385,13.29,0.019,231.3
2023-05-29T05:43:03,42.805,6.029,-0.038,0.01,-0.026,103.0,104.0,101.0,13.4,1505.2,322.2,-0.8,1.8,2471.376,13.29,0.039,284.7
2023-05-29T05:46:03,42.805,6.029,0.0,-0.001,-0.022,105.0,103.0,102.0,13.3,1505.2,332.9,-0.8,1.8,2471.385,13.29,0.001,180.0
2023-05-29T05:49:03,42.805,6.029,-0.016,0.012,-0.041,105.0,104.0,102.0,13.4,1505.2,335.3,-0.8,1.8,2471.397,13.29,0.02,306.9
2023-05-29T05:52:03,42.805,6.029,-0.018,-0.012,-0.052,103.0,104.0,102.0,13.4,1505.2,323.1,-0.8,1.8,2471.383,13.29,0.021,236.3
2023-05-29T05:55:03,42.805,6.029,-0.02,0.011,-0.049,102.0,103.0,102.0,13.3,1505.2,335.2,-0.8,1.8,2471.418,13.29,0.022,298.8
2023-05-29T05:58:03,42.805,6.029,-0.006,0.002,-0.025,104.0,104.0,102.0,13.4,1505.2,327.1,-0.7,1.8,2471.388,13.29,0.006,288.4
2023-05-29T06:04:03,42.805,6.029,-0.008,-0.009,-0.036,104.0,104.0,102.0,13.3,1505.2,323.9,-0.8,1.8,2471.437,13.29,0.012,221.6
2023-05-29T06:07:03,42.805,6.029,-0.015,0.023,-0.02,104.0,103.0,101.0,13.4,1505.2,345.9,-0.8,1.8,2471.434,13.29,0.027,326.9
2023-05-29T06:10:03,42.805,6.029,-0.015,0.008,-0.041,104.0,102.0,102.0,13.3,1505.2,347.5,-0.8,1.8,2471.418,13.29,0.017,298.1
2023-05-29T06:13:03,42.805,6.029,-0.018,0.008,-0.046,104.0,102.0,102.0,13.3,1505.2,333.8,-0.8,1.8,2471.434,13.29,0.019,294.0
2023-05-29T06:16:03,42.805,6.029,-0.006,-0.006,-0.005,104.0,102.0,102.0,13.4,1505.2,317.8,-0.8,1.8,2471.387,13.29,0.008,225.0
2023-05-29T06:19:03,42.805,6.029,-0.013,0.002,-0.028,103.0,104.0,103.0,13.3,1505.2,332.9,-0.8,1.8,2471.38,13.29,0.013,278.7
2023-05-29T06:22:03,42.805,6.029,-0.004,0.014,-0.023,104.0,103.0,101.0,13.3,1505.2,328.2,-0.8,1.8,2471.376,13.29,0.014,344.1
2023-05-29T06:25:03,42.805,6.029,0.002,-0.001,0.009,105.0,101.0,103.0,13.4,1505.2,327.4,-0.8,1.8,2471.333,13.29,0.002,116.6
2023-05-29T06:28:03,42.805,6.029,-0.018,-0.004,-0.047,104.0,103.0,101.0,13.4,1505.2,326.5,-0.8,1.8,2471.384,13.29,0.018,257.5
2023-05-29T06:31:03,42.805,6.029,-0.033,0.005,-0.014,103.0,103.0,102.0,13.4,1505.2,329.7,-0.8,1.8,2471.403,13.29,0.033,278.6
2023-05-29T06:34:03,42.805,6.029,-0.006,-0.005,-0.029,103.0,104.0,101.0,13.4,1505.2,335.0,-0.8,1.8,2471.377,13.29,0.007,230.2
2023-05-29T06:37:03,42.805,6.029,-0.016,0.011,-0.025,105.0,103.0,102.0,13.4,1505.2,329.4,-0.8,1.8,2471.381,13.29,0.019,304.5
2023-05-29T06:40:03,42.805,6.029,-0.013,-0.034,-0.026,104.0,103.0,102.0,13.4,1505.2,347.5,-0.7,1.8,2471.356,13.29,0.036,200.9
2023-05-29T06:43:03,42.805,6.029,-0.021,0.009,-0.01,103.0,103.0,102.0,13.4,1505.2,323.1,-0.8,1.8,2471.338,13.29,0.022,293.2
2023-05-29T06:46:03,42.805,6.029,-0.014,0.003,-0.017,105.0,103.0,102.0,13.4,1505.2,322.4,-0.8,1.8,2471.349,13.29,0.014,282.1
2023-05-29T06:49:03,42.805,6.029,0.0,-0.003,-0.024,103.0,104.0,101.0,13.3,1505.2,340.1,-0.8,1.8,2471.374,13.29,0.003,180.0
2023-05-29T06:52:03,42.805,6.029,0.009,0.005,-0.009,103.0,104.0,101.0,13.3,1505.2,330.2,-0.8,1.8,2471.37,13.29,0.01,60.9
2023-05-29T06:55:03,42.805,6.029,0.003,0.001,-0.017,105.0,101.0,103.0,13.4,1505.2,337.4,-0.8,1.9,2471.341,13.29,0.003,71.6
2023-05-29T06:58:03,42.805,6.029,0.007,-0.01,-0.044,104.0,103.0,103.0,13.4,1505.2,340.4,-0.8,1.8,2471.344,13.29,0.012,145.0
2023-05-29T07:04:03,42.805,6.029,0.021,-0.025,-0.011,104.0,103.0,103.0,13.4,1505.2,319.9,-0.8,1.8,2471.396,13.29,0.032,140.0
2023-05-29T07:07:03,42.805,6.029,-0.007,0.004,-0.041,104.0,103.0,102.0,13.4,1505.2,338.2,-0.7,1.8,2471.399,13.29,0.008,299.7
2023-05-29T07:10:03,42.805,6.029,0.006,-0.008,-0.009,102.0,104.0,102.0,13.4,1505.2,326.3,-0.8,1.8,2471.404,13.29,0.01,143.1
2023-05-29T07:13:03,42.805,6.029,0.0,-0.017,-0.033,104.0,103.0,103.0,13.3,1505.2,335.6,-0.8,1.8,2471.39,13.29,0.017,180.0
2023-05-29T07:16:03,42.805,6.029,0.0,0.0,-0.024,104.0,102.0,102.0,13.4,1505.2,340.5,-0.8,1.8,2471.348,13.29,0.0,0.0
2023-05-29T07:19:03,42.805,6.029,0.004,0.005,-0.004,104.0,104.0,102.0,13.3,1505.2,329.4,-0.8,1.8,2471.374,13.29,0.006,38.7
2023-05-29T07:22:03,42.805,6.029,-0.012,-0.006,-0.008,105.0,105.0,102.0,13.4,1505.2,330.3,-0.8,1.8,2471.353,13.29,0.013,243.4
2023-05-29T07:25:03,42.805,6.029,0.0,-0.001,-0.027,105.0,103.0,102.0,13.4,1505.2,325.4,-0.8,1.8,2471.294,13.29,0.001,180.0
2023-05-29T07:28:03,42.805,6.029,0.003,0.007,-0.02,103.0,103.0,102.0,13.4,1505.2,326.3,-0.8,1.8,2471.322,13.29,0.007,23.2
2023-05-29T07:31:03,42.805,6.029,-0.015,-0.001,-0.03,103.0,104.0,101.0,13.3,1505.2,337.1,-0.8,1.8,2471.344,13.29,0.015,266.2
2023-05-29T07:34:03,42.805,6.029,0.007,0.0,-0.042,104.0,103.0,101.0,13.3,1505.2,345.9,-0.8,1.8,2471.314,13.29,0.007,90.0
2023-05-29T07:37:03,42.805,6.029,-0.007,-0.005,0.007,104.0,104.0,103.0,13.4,1505.2,325.3,-0.8,1.9,2471.309,13.29,0.008,234.5
2023-05-29T07:40:03,42.805,6.029,0.009,-0.009,-0.026,103.0,104.0,102.0,13.3,1505.2,328.2,-0.8,1.8,2471.329,13.29,0.012,135.0
2023-05-29T07:43:03,42.805,6.029,0.002,0.003,-0.022,103.0,105.0,102.0,13.3,1505.2,327.9,-0.7,1.8,2471.308,13.29,0.003,33.7
2023-05-29T07:46:03,42.805,6.029,0.016,-0.001,-0.009,103.0,104.0,102.0,13.4,1505.2,329.0,-0.8,1.8,2471.327,13.29,0.016,93.6
2023-05-29T07:49:03,42.805,6.029,-0.001,-0.005,-0.031,103.0,102.0,101.0,13.4,1505.2,335.0,-0.8,1.8,2471.334,13.29,0.005,191.3
2023-05-29T07:52:03,42.805,6.029,-0.003,-0.015,-0.021,104.0,102.0,101.0,13.4,1505.2,335.8,-0.8,1.8,2471.341,13.29,0.015,191.3
2023-05-29T07:55:03,42.805,6.029,0.003,-0.016,-0.048,103.0,103.0,102.0,13.3,1505.2,329.4,-0.7,1.8,2471.329,13.29,0.016,169.4
2023-05-29T07:58:03,42.805,6.029,0.009,-0.029,-0.085,103.0,103.0,101.0,13.3,1505.2,338.9,-0.8,1.9,2471.318,13.29,0.03,162.8
2023-05-29T08:04:03,42.805,6.029,0.008,-0.025,-0.024,104.0,103.0,102.0,13.4,1505.2,337.5,-0.8,1.8,2471.383,13.28,0.026,162.3
2023-05-29T08:07:03,42.805,6.029,-0.019,0.003,-0.027,103.0,103.0,101.0,13.4,1505.2,323.8,-0.8,1.8,2471.346,13.28,0.019,279.0
2023-05-29T08:10:03,42.805,6.029,0.002,-0.002,-0.048,102.0,103.0,102.0,13.3,1505.2,349.9,-0.8,1.8,2471.326,13.29,0.002,135.0
2023-05-29T08:13:03,42.805,6.029,0.026,-0.009,-0.009,102.0,102.0,102.0,13.4,1505.2,333.0,-0.8,1.8,2471.362,13.29,0.027,109.1
2023-05-29T08:16:03,42.805,6.029,0.019,-0.01,-0.012,103.0,103.0,101.0,13.4,1505.2,318.9,-0.7,1.9,2471.352,13.29,0.021,117.8
2023-05-29T08:19:03,42.805,6.029,-0.001,-0.001,-0.032,102.0,103.0,102.0,13.4,1505.2,331.3,-0.8,1.8,2471.315,13.29,0.001,225.0
2023-05-29T08:22:03,42.805,6.029,-0.008,-0.013,0.013,102.0,102.0,101.0,13.4,1505.2,328.8,-0.8,1.8,2471.362,13.29,0.015,211.6
2023-05-29T08:25:03,42.805,6.029,0.012,-0.02,-0.033,102.0,103.0,102.0,13.3,1505.2,344.9,-0.8,1.8,2471.337,13.29,0.023,149.0
2023-05-29T08:28:03,42.805,6.029,0.006,0.0,-0.027,103.0,102.0,102.0,13.4,1505.2,325.5,-0.8,1.8,2471.298,13.29,0.006,90.0
2023-05-29T08:31:03,42.805,6.029,0.0,-0.014,-0.041,102.0,102.0,102.0,13.3,1505.2,337.1,-0.8,1.8,2471.301,13.29,0.014,180.0
2023-05-29T08:34:03,42.805,6.029,0.019,-0.013,-0.014,105.0,103.0,101.0,13.4,1505.2,339.5,-0.8,1.8,2471.3,13.29,0.023,124.4
2023-05-29T08:37:03,42.805,6.029,0.002,-0.01,-0.038,103.0,101.0,103.0,13.4,1505.2,319.2,-0.7,1.8,2471.268,13.29,0.01,168.7
2023-05-29T08:40:03,42.805,6.029,0.004,0.0,-0.022,104.0,103.0,101.0,13.4,1505.2,339.1,-0.8,1.8,2471.316,13.29,0.004,90.0
2023-05-29T08:43:03,42.805,6.029,0.005,-0.004,-0.02,103.0,104.0,102.0,13.4,1505.2,340.7,-0.8,1.8,2471.36,13.29,0.006,128.7
2023-05-29T08:46:03,42.805,6.029,-0.013,0.01,-0.014,103.0,103.0,102.0,13.3,1505.2,341.9,-0.8,1.8,2471.322,13.29,0.016,307.6
2023-05-29T08:49:03,42.805,6.029,0.022,-0.016,-0.014,104.0,102.0,101.0,13.4,1505.2,339.1,-0.8,1.8,2471.265,13.29,0.027,126.0
2023-05-29T08:52:03,42.805,6.029,-0.006,-0.006,-0.01,101.0,104.0,103.0,13.3,1505.2,319.4,-0.8,1.8,2471.312,13.29,0.008,225.0
2023-05-29T08:55:03,42.805,6.029,0.01,-0.016,-0.005,104.0,103.0,102.0,13.4,1505.2,328.3,-0.7,1.8,2471.324,13.29,0.018,148.0
2023-05-29T08:58:03,42.805,6.029,0.007,-0.023,-0.033,103.0,103.0,102.0,13.4,1505.2,335.2,-0.8,1.8,2471.296,13.29,0.024,163.1
2023-05-29T09:04:03,42.805,6.029,0.024,0.001,-0.03,103.0,104.0,101.0,13.4,1505.2,324.4,-0.7,1.8,2471.331,13.28,0.024,87.6
2023-05-29T09:07:03,42.805,6.029,0.021,-0.02,-0.01,103.0,104.0,102.0,13.3,1505.2,331.3,-0.8,1.8,2471.309,13.28,0.028,133.6
2023-05-29T09:10:03,42.805,6.029,-0.004,-0.018,-0.057,104.0,104.0,102.0,13.4,1505.2,324.5,-0.7,1.8,2471.329,13.28,0.018,192.5
2023-05-29T09:13:03,42.805,6.029,0.012,-0.02,-0.061,103.0,103.0,102.0,13.4,1505.2,343.6,-0.8,1.8,2471.306,13.29,0.023,149.0
2023-05-29T09:16:03,42.805,6.029,-0.007,-0.025,-0.063,104.0,104.0,102.0,13.4,1505.2,325.7,-0.8,1.8,2471.342,13.29,0.025,195.6
2023-05-29T09:19:03,42.805,6.029,0.021,-0.009,-0.036,104.0,103.0,102.0,13.4,1505.2,324.3,-0.8,1.8,2471.324,13.29,0.022,113.2
2023-05-29T09:22:03,42.805,6.029,0.021,-0.022,-0.012,105.0,103.0,102.0,13.4,1505.2,345.6,-0.8,1.8,2471.304,13.29,0.03,136.3
2023-05-29T09:25:03,42.805,6.029,0.013,-0.025,-0.038,104.0,103.0,102.0,13.4,1505.2,328.2,-0.8,1.8,2471.315,13.29,0.028,152.5
2023-05-29T09:28:03,42.805,6.029,0.005,-0.021,-0.039,104.0,104.0,101.0,13.4,1505.2,330.9,-0.7,1.8,2471.315,13.29,0.021,166.6
2023-05-29T09:31:03,42.805,6.029,0.032,-0.023,-0.047,104.0,103.0,102.0,13.3,1505.2,322.2,-0.7,1.8,2471.309,13.29,0.039,125.7
2023-05-29T09:34:03,42.805,6.029,0.005,-0.025,-0.033,104.0,103.0,102.0,13.4,1505.2,324.5,-0.8,1.8,2471.339,13.29,0.025,168.7
2023-05-29T09:37:03,42.805,6.029,-0.004,-0.027,0.005,104.0,103.0,101.0,13.4,1505.2,340.8,-0.8,1.8,2471.311,13.29,0.027,188.4
2023-05-29T09:40:03,42.805,6.029,0.016,-0.023,-0.048,103.0,102.0,103.0,13.4,1505.2,317.7,-0.8,1.8,2471.291,13.29,0.028,145.2
2023-05-29T09:43:03,42.805,6.029,0.014,-0.022,-0.015,103.0,103.0,102.0,13.4,1505.2,331.2,-0.8,1.9,2471.297,13.29,0.026,147.5
2023-05-29T09:46:03,42.805,6.029,-0.003,-0.008,-0.023,103.0,103.0,103.0,13.4,1505.2,327.3,-0.8,1.8,2471.258,13.29,0.008,200.6
2023-05-29T09:49:03,42.805,6.029,0.021,-0.02,-0.033,104.0,103.0,102.0,13.3,1505.2,325.2,-0.7,1.8,2471.307,13.29,0.028,133.6
2023-05-29T09:52:03,42.805,6.029,0.03,-0.041,-0.011,104.0,103.0,102.0,13.4,1505.2,330.8,-0.8,1.8,2471.289,13.29,0.05,143.8